Dewpoint
59 54 53 49 47 42 30 24 25 21 13 8 1 -3 -5 -4 -2 -4 -2 9 4 12 23 23 15 12 12 16 30 39 41 40 47 45 50 63 64 66 66 66 66 66 66 65 66 70 71 73 74 74 74 74 74 74 74 74 73 73 73 73 73 73 73 73 72 73 72 72 72 71 71 70 70 70 70 70 69 69 70 70 69 67 66 68 67 67 67 68 68 68 68 68 68 67 67 67 67
47 48 48 45 39 37 27 21 18 12 11 4 -6 -8 -7 4 7 -5 -11 5 5 9 13 12 12 12 14 20 31 41 41 53 57 57 62 62 65 67 67 67 66 65 65 65 66 69 69 72 73 73 74 74 74 74 74 73 73 73 73 73 73 73 72 72 72 73 72 72 71 71 71 70 70 70 70 70 71 70 71 69 67 67 67 68 68 68 69 69 68 69 69 69 69 69 67 66 66
45 41 31 34 35 34 32 13 12 7 3 5 -0 -6 2 -0 -9 -3 -1 5 8 8 10 11 10 14 19 30 38 37 49 53 59 60 61 65 64 67 67 67 66 65 65 66 66 66 67 70 73 73 74 74 74 73 73 73 73 73 73 73 73 72 72 73 73 73 72 72 71 71 71 70 70 70 70 70 70 70 70 69 67 68 69 68 68 69 69 69 69 69 69 69 69 70 69 68 66
54 37 28 26 27 23 25 8 3 -0 2 -1 -9 -2 -2 -1 -2 5 6 6 8 9 10 10 11 45 40 38 46 41 50 57 59 59 63 63 65 67 67 67 67 65 65 64 64 64 66 72 73 73 74 73 73 73 73 73 73 73 73 73 72 73 73 73 72 72 72 72 71 71 71 71 71 71 70 70 70 71 70 70 69 69 69 69 69 70 70 69 70 69 69 70 70 70 69 69 68
46 36 37 27 26 18 15 15 7 1 -3 -8 -10 -2 0 -1 2 6 7 9 8 9 11 12 12 28 44 48 53 47 56 58 58 59 62 65 67 67 67 67 65 65 64 63 63 64 68 72 73 73 73 73 73 73 73 73 73 73 73 73 73 73 73 72 72 72 71 71 71 71 71 71 71 71 71 70 70 70 71 71 71 70 71 71 71 70 70 70 70 70 69 69 69 69 69 69 68
39 32 31 35 28 31 20 13 12 2 -1 -6 -6 -7 -0 3 8 9 7 8 12 11 10 13 15 44 42 52 55 58 59 57 60 61 64 65 68 68 67 67 65 64 63 64 65 65 67 72 72 72 73 73 73 73 73 73 73 73 73 73 73 73 72 72 72 71 71 71 71 71 71 71 70 71 71 71 72 71 70 70 71 71 71 71 70 70 70 70 70 69 69 69 69 68 68 68 69
32 30 22 30 29 22 16 8 4 -1 -3 -7 -9 -9 3 7 9 8 7 10 15 14 14 17 28 32 40 57 59 60 61 61 58 62 65 67 68 68 68 66 64 64 64 64 65 66 68 72 72 72 73 73 73 73 72 73 73 73 73 73 72 72 72 72 72 71 71 71 71 71 71 70 70 71 71 71 72 71 72 71 71 71 71 71 70 71 71 70 69 69 68 68 68 69 70 69 69
34 27 17 15 17 10 8 7 7 2 -2 1 0 0 7 8 9 8 7 8 18 19 16 19 35 35 51 53 51 61 61 61 62 65 67 68 68 67 66 65 64 64 64 66 66 67 72 72 72 72 72 72 72 72 72 73 73 73 72 72 72 72 72 72 72 72 71 71 71 71 70 70 71 70 70 71 71 70 71 71 71 71 71 71 71 70 70 69 69 69 69 69 69 69 69 69 69
31 30 29 12 14 15 7 5 4 -1 -5 -3 -1 12 28 8 7 8 6 13 15 17 17 21 22 21 42 46 55 61 63 63 63 67 68 69 67 67 66 65 64 64 65 65 66 69 68 72 72 72 72 72 72 72 72 72 72 72 72 72 72 72 72 72 71 71 71 71 71 71 71 71 71 70 71 71 71 71 71 71 71 71 71 70 69 69 69 69 69 69 69 69 69 69 69 69 69
27 29 23 9 14 14 10 2 -0 -6 -5 -1 -1 6 9 8 7 10 12 13 21 30 23 17 16 14 42 51 57 61 62 64 65 67 69 67 67 66 67 66 65 65 65 65 67 66 68 72 72 72 72 72 72 72 72 72 72 72 72 72 72 72 72 72 72 71 71 71 70 70 70 71 71 71 71 71 71 71 71 71 70 70 70 70 69 69 69 69 68 68 68 69 69 69 69 69 70
25 15 20 18 9 7 5 0 -4 -4 -2 -4 -3 7 9 7 8 8 12 17 24 25 20 19 16 16 41 55 55 63 64 64 66 67 68 68 67 66 66 66 65 66 66 66 66 66 68 68 72 72 72 72 72 72 72 72 72 72 72 72 72 72 72 72 71 71 71 70 70 70 70 70 70 71 71 71 71 71 71 70 70 70 70 69 69 68 68 68 68 68 69 69 69 69 69 69 69
22 13 8 8 10 7 -2 -4 -8 -7 -3 -2 0 10 9 8 8 9 15 19 32 32 21 19 16 20 38 56 59 64 64 65 66 67 68 67 67 66 66 66 66 66 67 66 64 67 66 68 69 72 72 72 72 72 72 72 72 72 72 72 72 72 72 71 71 71 71 70 70 70 70 70 70 70 71 71 71 71 70 70 70 69 69 69 69 69 69 69 69 69 69 69 69 69 69 69 69
21 20 10 6 3 3 0 -3 -5 -5 -2 -5 5 10 8 8 8 9 18 24 27 26 17 19 42 30 54 59 63 64 64 64 65 66 66 66 66 66 65 65 65 66 67 65 63 65 67 66 66 68 70 71 71 71 71 72 72 72 72 72 72 72 71 71 71 71 70 70 71 71 70 70 70 70 71 71 70 70 70 70 70 70 70 69 69 69 69 69 69 69 69 69 69 69 69 69 69
17 18 13 10 4 -1 -1 -4 -8 -2 -7 5 9 9 8 7 11 11 19 22 34 29 35 36 38 56 61 60 63 63 63 64 65 66 65 65 65 65 65 65 65 65 66 65 64 65 66 65 67 68 69 70 71 71 72 72 72 72 72 72 72 71 71 71 71 70 71 71 71 70 70 70 71 71 71 70 70 70 70 70 70 70 70 69 69 69 68 69 69 69 69 69 69 69 69 69 69
16 11 11 10 6 5 -3 -9 -10 -9 -1 5 10 9 8 11 10 13 22 30 40 42 48 47 48 45 52 55 59 61 63 64 65 64 64 64 64 64 64 63 64 64 63 64 64 66 64 65 65 68 69 67 69 69 70 72 72 72 72 72 71 71 71 70 71 70 70 70 70 70 71 71 70 70 70 70 70 70 69 70 69 69 69 69 68 68 68 68 69 69 69 69 69 69 69 69 69
16 13 11 11 4 -2 -4 -8 -5 -3 2 6 10 9 8 8 11 11 21 32 44 45 46 37 50 54 54 53 57 61 63 64 64 65 64 64 64 64 63 64 64 63 63 64 63 64 64 63 66 66 66 67 68 67 68 69 71 72 71 71 71 71 71 71 71 69 69 71 71 71 71 71 70 70 70 69 70 69 69 67 69 69 68 68 68 68 68 68 69 69 69 69 69 69 69 69 68
12 12 14 7 3 0 -6 -4 -6 -7 5 7 11 9 7 8 12 13 18 30 38 46 43 51 52 57 55 51 59 63 63 65 65 65 65 64 64 63 65 65 65 64 64 64 64 63 63 64 64 65 67 66 67 67 68 68 70 72 72 71 71 71 71 71 70 71 71 71 70 70 70 69 70 69 69 69 70 68 68 69 69 69 68 68 68 68 68 68 68 69 69 69 69 70 69 69 68
13 12 9 9 3 -3 -5 -6 -3 6 3 9 9 9 8 7 11 13 17 21 32 43 43 54 55 60 63 62 62 63 63 64 65 65 64 63 64 62 62 63 63 63 64 64 63 62 62 65 63 66 67 67 67 66 66 67 70 69 69 70 70 71 71 71 71 69 70 70 70 69 70 71 70 70 68 69 69 68 68 68 68 68 67 68 68 68 68 68 68 69 69 69 69 69 69 67 68
12 9 7 5 2 6 4 5 4 3 6 9 8 9 9 7 9 12 14 19 23 37 47 52 56 58 61 62 63 62 63 65 66 66 64 65 63 64 63 64 63 63 64 64 64 64 63 65 66 68 68 68 67 64 65 67 67 67 67 67 68 69 70 69 67 67 67 68 67 68 71 69 69 69 70 68 68 68 68 68 68 67 67 67 68 68 67 68 68 68 69 69 69 69 67 64 64
10 10 6 3 3 6 9 6 5 5 7 5 8 7 8 8 9 14 12 15 19 31 47 50 57 58 60 60 63 63 65 65 66 65 64 64 64 64 64 64 64 64 63 64 64 65 63 65 69 69 69 70 71 64 65 65 66 66 66 67 67 68 68 67 67 67 68 69 70 70 71 69 70 70 68 69 68 67 67 67 67 67 67 67 68 67 67 67 67 68 69 70 69 66 68 68 62
6 7 7 6 11 8 4 4 7 8 6 8 6 8 6 8 10 12 12 13 13 35 42 44 51 58 60 61 61 64 65 65 64 65 65 64 65 65 64 65 65 65 65 65 65 65 64 68 69 68 69 69 69 66 64 64 66 66 65 66 67 66 68 69 68 68 69 68 69 70 69 70 70 69 69 68 66 65 66 66 66 66 66 66 67 63 62 61 65 62 66 67 64 66 67 68 67
8 3 2 5 8 6 6 8 10 8 9 4 7 7 7 10 9 9 11 10 6 24 34 41 59 61 60 59 62 64 64 64 64 64 64 64 64 64 65 65 66 65 66 64 66 65 66 67 69 69 69 68 69 64 64 65 66 66 67 67 68 67 66 68 69 68 68 69 69 69 70 71 69 69 69 67 64 63 61 60 63 63 63 62 65 62 60 60 61 59 60 61 63 67 69 68 65
7 7 9 10 8 7 8 12 10 9 7 7 9 9 12 7 8 10 10 10 10 13 22 30 58 58 57 61 61 63 64 64 64 64 64 63 64 64 64 64 65 64 64 66 65 65 65 66 67 69 68 68 67 65 69 66 67 68 68 68 68 69 70 70 70 69 69 68 69 69 68 69 69 66 66 66 63 62 61 61 63 62 62 61 62 61 62 61 61 60 60 61 65 67 67 66 66
8 3 6 4 5 8 8 7 8 9 9 10 12 11 9 6 6 8 10 10 10 25 28 27 44 54 53 57 62 63 63 63 65 65 65 64 65 65 65 64 64 65 65 66 65 65 65 66 67 67 67 66 66 66 70 69 70 68 69 69 68 69 69 68 69 69 70 69 68 69 69 69 67 66 64 63 62 63 62 63 63 61 62 61 62 61 61 61 62 60 61 59 63 64 65 66 68
6 2 3 11 13 12 10 9 9 9 12 12 10 9 7 5 5 7 9 10 20 33 34 36 46 50 51 57 59 63 63 64 64 65 65 64 65 65 65 64 65 65 64 65 65 65 66 66 67 68 66 66 66 67 66 68 69 67 68 69 68 68 68 68 69 68 69 68 68 69 68 68 64 62 62 63 62 62 63 63 63 62 62 61 62 61 61 62 61 60 61 60 61 61 66 66 62
4 4 3 3 6 10 10 10 10 12 11 9 9 7 6 6 6 7 9 7 28 29 39 44 46 50 51 56 61 63 64 63 64 64 64 64 65 65 64 64 65 65 64 67 67 68 66 67 66 66 65 66 66 67 69 68 68 69 68 68 68 68 69 69 68 68 69 68 68 69 68 67 65 62 62 61 62 63 64 65 65 64 62 62 63 63 61 61 60 60 61 60 58 59 63 61 60
13 7 5 4 7 9 11 13 14 11 10 10 8 6 5 6 7 4 8 21 28 35 44 46 47 50 53 56 60 63 63 63 64 64 64 64 65 65 64 64 65 67 67 68 68 67 68 67 67 66 69 70 68 69 68 68 67 68 68 69 67 67 69 69 69 69 69 69 68 68 67 66 64 62 62 62 62 64 65 66 65 64 62 63 64 63 62 62 61 62 62 60 60 62 61 64 59
7 15 15 13 12 13 13 13 12 9 6 7 6 3 3 4 6 5 11 21 24 38 43 46 49 52 56 59 60 61 63 63 63 64 64 64 63 63 64 63 65 66 68 67 67 68 69 69 69 68 68 68 67 66 67 67 68 68 67 68 68 69 68 67 69 67 69 67 67 70 66 64 63 63 64 63 64 64 64 64 64 64 64 64 64 62 63 63 63 63 62 62 65 67 66 62 66
10 9 6 6 5 4 6 7 8 9 5 6 7 5 3 4 3 5 6 19 22 32 43 45 48 53 54 56 59 60 60 62 63 63 64 63 63 63 64 64 63 65 65 68 67 67 68 69 70 68 68 69 68 68 66 68 65 65 65 67 64 67 67 68 64 63 67 68 68 67 65 64 64 65 66 64 64 64 64 64 64 65 64 65 65 65 65 65 65 64 65 63 64 64 62 62 63
11 8 8 5 2 2 4 6 6 7 5 5 6 1 -2 -2 -0 1 5 9 23 24 39 44 47 51 50 55 57 60 59 60 61 61 63 63 64 63 63 64 64 65 64 64 65 68 68 69 69 67 68 67 67 68 67 66 66 65 66 70 69 66 65 66 68 65 68 67 67 66 65 64 64 64 65 65 63 64 65 64 64 64 63 65 66 66 65 64 63 63 62 62 62 65 61 62 65
7 6 5 5 2 1 1 4 8 5 3 4 4 3 -5 -7 -4 -2 3 13 22 23 32 41 44 49 48 54 57 58 59 60 60 61 62 64 63 62 62 64 64 65 62 62 65 66 67 69 69 67 68 67 68 69 69 67 67 64 65 67 69 68 66 63 66 68 68 68 66 68 66 64 63 62 64 65 65 64 63 64 63 63 65 65 63 64 64 63 63 62 64 63 66 67 63 61 61
7 3 5 2 1 2 6 8 7 -0 8 7 3 5 -5 -4 -2 -4 7 13 21 23 25 35 39 46 49 53 57 57 58 59 58 58 62 64 63 62 63 64 64 65 63 65 64 65 67 68 68 69 68 67 69 68 68 68 70 70 67 68 67 68 65 65 63 66 63 64 68 66 67 65 64 64 64 66 66 64 62 63 64 65 65 64 64 65 65 62 64 64 67 66 66 66 63 61 61
9 6 14 7 -0 -1 6 8 7 3 7 5 1 -5 -7 -7 -1 5 12 16 21 24 25 36 40 41 45 52 54 57 58 59 56 57 61 64 61 60 63 65 64 64 64 64 65 66 66 67 68 68 67 67 67 69 68 68 69 68 69 67 66 68 64 65 70 67 63 63 66 64 66 66 66 65 65 65 65 64 62 64 64 65 65 63 65 66 64 62 65 64 66 67 67 65 64 59 63
10 7 6 7 5 0 1 8 8 7 3 1 5 -2 -1 0 3 6 12 13 18 21 24 37 41 41 44 47 50 54 57 57 56 53 57 60 61 63 63 64 64 65 65 66 66 65 66 66 67 67 67 67 68 69 68 68 68 68 67 67 68 69 64 65 64 62 61 66 63 63 66 66 66 66 66 66 66 64 63 63 65 65 63 64 65 64 63 63 63 67 66 67 65 65 63 61 62
13 14 14 8 6 9 4 6 7 7 5 3 7 5 0 -1 3 5 8 9 11 19 20 32 40 41 42 43 47 50 54 56 56 55 56 60 62 65 63 63 64 65 65 66 65 66 66 65 65 67 67 67 68 68 67 68 69 68 68 67 68 69 68 64 67 61 67 66 64 64 66 66 66 66 66 66 67 63 63 64 66 66 64 63 64 64 63 63 64 64 64 64 64 62 61 62 61
7 5 11 8 7 3 2 2 9 8 7 5 4 5 2 1 2 2 5 5 10 14 22 25 37 39 40 40 42 48 52 55 55 56 57 57 62 65 65 63 65 64 64 65 65 66 65 66 66 66 66 67 66 68 67 67 68 67 67 67 66 65 64 64 63 62 66 68 63 64 65 66 65 66 65 65 66 66 63 64 66 67 65 63 64 63 62 63 65 65 65 64 63 62 62 62 62
10 11 11 9 7 6 1 7 9 10 7 7 6 7 5 5 6 7 5 9 13 13 19 25 31 34 36 36 39 45 51 52 56 58 59 61 63 65 64 64 64 64 64 64 66 66 66 64 65 65 66 67 66 65 65 66 66 66 66 66 66 63 61 63 64 63 66 63 63 64 65 65 65 65 65 65 66 64 65 65 67 66 66 64 64 63 64 65 65 65 65 65 64 63 62 62 61
16 12 9 5 2 1 2 4 11 11 18 7 9 6 8 8 9 7 9 11 10 14 17 24 27 25 31 38 39 39 46 52 55 58 58 63 62 64 65 64 64 62 62 63 65 66 65 66 65 65 66 66 65 66 66 65 66 66 66 65 63 66 61 63 63 64 64 64 66 64 67 65 65 66 65 65 65 64 64 65 66 66 65 64 64 63 65 65 65 64 64 63 64 63 62 62 64
21 15 10 7 5 4 2 11 12 12 12 11 4 4 6 10 11 9 10 9 13 17 18 19 25 25 26 29 37 40 40 47 55 56 59 59 62 64 65 65 63 63 62 63 66 65 65 65 64 65 65 66 66 65 65 65 66 66 67 67 62 63 63 66 65 67 65 66 67 67 66 66 64 63 64 64 66 64 65 64 65 66 65 64 63 64 64 64 65 64 64 62 62 63 62 63 64
18 15 12 8 6 5 5 7 11 12 12 11 12 10 11 12 13 14 14 7 11 9 12 13 15 22 24 26 30 35 36 43 54 56 58 59 60 63 64 63 63 63 62 62 65 64 65 65 65 65 65 66 65 64 65 65 66 67 66 66 66 66 64 66 64 66 66 68 66 65 64 65 65 64 63 64 63 63 65 65 65 65 65 65 63 64 64 64 64 64 64 63 62 61 60 61 64
20 17 11 7 5 4 5 9 14 17 15 22 15 17 10 9 7 7 10 10 6 5 10 15 16 12 19 23 26 32 37 42 52 56 57 58 61 63 64 64 63 63 63 62 65 64 64 65 65 65 64 65 65 64 64 65 66 65 67 65 65 65 64 64 65 65 65 66 65 66 64 65 65 63 63 63 61 64 64 65 64 65 65 65 63 61 62 63 63 63 63 63 63 61 59 62 62
15 20 14 10 9 8 -0 13 12 12 12 13 10 6 8 10 5 4 3 5 7 6 11 11 15 16 13 18 26 30 35 38 50 54 54 58 60 64 64 64 64 64 63 63 64 66 65 65 65 65 64 64 64 65 65 66 65 65 65 63 62 62 62 64 63 65 64 64 62 65 64 64 65 64 63 63 63 65 65 65 65 65 65 65 64 62 61 62 62 61 62 62 62 64 61 61 63
15 13 12 11 9 10 11 10 10 8 9 16 13 9 7 8 5 7 10 8 6 11 13 8 10 12 11 13 17 22 27 35 54 54 54 56 59 63 64 64 64 64 63 64 66 66 66 65 65 65 65 65 65 64 66 66 64 65 64 63 63 62 63 63 64 65 65 64 64 65 63 65 63 65 64 64 64 64 66 65 65 65 64 65 64 63 61 62 60 59 61 62 61 62 62 61 62
9 11 15 15 13 11 10 7 7 12 12 15 15 12 13 7 6 11 12 15 11 14 14 14 4 10 10 14 14 21 21 30 42 55 57 57 57 63 63 63 64 64 64 64 64 63 63 64 64 65 65 65 63 64 65 65 64 64 65 65 64 63 63 63 64 66 66 62 64 64 64 64 62 62 62 62 64 65 66 65 65 65 64 64 62 62 62 61 61 60 62 62 61 60 63 60 63
9 10 14 13 10 7 6 7 10 11 11 5 8 11 12 9 9 7 6 12 14 13 14 13 14 30 36 35 31 26 24 33 39 49 58 55 58 63 63 64 65 64 64 64 64 63 65 63 64 64 65 65 67 64 64 66 65 67 66 65 65 65 66 65 64 64 63 63 63 63 63 61 62 62 61 61 61 63 64 65 65 64 64 64 61 61 62 61 61 64 63 66 61 61 62 66 64
12 11 15 13 11 10 9 10 5 9 11 10 11 11 9 8 10 6 4 11 16 15 15 23 32 34 37 41 41 41 35 33 49 56 53 52 55 62 64 64 65 64 64 64 64 64 62 62 62 63 64 66 65 64 63 65 66 65 66 66 64 64 64 63 64 63 63 62 62 62 63 61 61 62 62 61 63 61 62 63 64 64 64 64 62 60 62 61 62 62 62 64 64 65 64 65 65
15 16 13 11 8 10 11 12 10 12 8 9 13 12 4 5 10 8 10 16 24 21 42 40 40 39 39 41 39 39 36 33 50 59 57 56 59 62 63 64 64 64 65 65 63 63 63 63 62 62 62 64 64 63 63 64 64 64 64 65 64 63 63 63 62 62 62 63 61 62 62 62 62 62 63 64 63 61 62 61 63 66 65 65 61 61 62 61 62 63 63 64 64 65 64 64 64
14 14 10 7 10 11 13 18 15 11 8 10 9 8 4 7 13 16 34 28 29 37 42 42 41 38 41 42 43 39 36 43 56 57 59 60 62 63 63 63 63 64 64 63 63 63 64 62 62 61 63 64 64 64 64 64 65 64 64 64 65 64 63 62 61 60 60 59 61 61 61 62 62 62 63 63 64 62 63 62 62 63 62 63 62 64 63 62 62 62 63 63 64 65 65 63 64
14 13 11 9 8 11 12 11 11 9 9 11 7 5 8 10 16 19 20 28 29 40 40 44 43 41 40 43 46 42 40 52 57 59 60 61 61 62 62 62 63 63 62 64 63 63 63 62 62 61 62 63 64 64 64 64 63 63 64 64 65 64 64 63 61 60 60 62 61 61 62 61 61 62 62 62 63 63 63 63 63 62 61 63 62 63 64 62 63 62 62 63 62 62 64 64 65
12 11 13 8 6 10 13 11 14 14 14 10 15 13 10 12 14 26 31 35 37 42 46 47 45 46 48 45 45 45 46 55 57 60 60 60 60 61 61 62 62 63 63 63 62 62 63 63 63 61 63 63 64 63 64 64 64 64 65 65 66 65 65 64 62 62 62 60 61 62 62 61 61 62 62 62 63 62 62 62 62 62 61 61 62 63 64 63 63 62 62 62 62 63 62 64 64
9 8 5 11 11 11 11 10 12 12 13 20 11 15 14 12 13 31 37 37 36 39 41 46 47 48 50 48 45 46 48 50 52 57 59 60 61 61 61 62 62 62 63 62 61 63 63 63 63 63 64 64 64 64 64 63 63 64 65 66 66 64 65 63 62 61 61 61 61 62 61 59 60 60 59 60 61 62 62 62 62 62 62 62 61 62 63 64 64 62 62 63 62 62 63 65 64
10 8 7 9 12 14 9 15 18 25 17 15 20 17 16 15 35 38 36 34 39 39 43 45 47 48 48 52 52 48 48 50 53 54 57 58 60 61 61 61 61 62 62 61 62 63 63 63 63 64 63 63 63 63 63 63 64 64 64 65 64 64 64 63 62 61 60 62 62 61 60 60 59 59 60 61 61 61 61 61 61 61 61 62 61 61 62 62 64 63 62 62 62 60 61 63 64
26 9 11 8 10 11 16 18 23 27 20 13 17 19 16 17 22 33 33 36 40 38 40 44 49 50 53 53 53 55 55 53 55 54 55 56 57 58 59 60 60 61 61 62 62 62 63 63 63 62 63 62 63 63 63 62 63 64 64 64 64 65 64 63 63 62 63 63 62 61 61 60 61 61 60 61 61 61 62 61 60 60 61 61 62 61 61 61 63 63 62 62 61 61 61 61 62
13 15 11 10 9 12 19 12 17 16 13 14 16 10 12 14 27 32 37 37 38 41 41 48 51 52 52 54 54 56 54 54 54 54 54 55 56 58 59 61 61 61 60 61 62 63 63 63 63 63 63 62 63 63 63 63 63 64 64 64 65 65 64 63 64 63 62 62 62 61 61 60 60 60 60 61 61 61 61 60 59 60 61 60 61 60 59 60 62 62 62 61 61 63 62 62 62
8 12 14 12 12 10 17 16 14 15 15 12 12 12 14 19 36 33 37 43 43 43 46 49 47 49 50 51 53 54 55 57 57 57 56 55 56 59 59 58 58 60 61 61 61 62 62 63 63 63 62 62 63 63 63 62 63 63 62 64 65 64 63 64 64 62 61 60 60 60 60 60 60 61 60 60 61 59 60 60 59 58 58 58 59 59 59 59 59 61 61 61 61 62 61 61 62
11 10 11 11 17 21 17 15 15 16 12 14 12 13 19 34 33 42 40 43 45 45 47 47 46 47 49 49 51 53 54 55 57 57 58 58 56 58 57 58 58 59 59 60 61 62 62 63 64 63 62 62 62 63 63 62 61 62 62 63 63 63 61 61 61 58 58 58 58 59 59 60 59 58 58 58 57 56 57 57 58 57 57 58 57 58 59 59 59 60 62 60 60 61 60 58 60
10 11 12 12 22 18 17 25 17 17 16 11 11 12 28 37 39 39 40 43 45 47 47 47 47 48 50 50 51 52 53 53 54 55 56 59 58 58 58 58 58 58 58 60 62 61 61 62 63 62 62 62 62 63 63 61 62 63 63 63 64 63 62 61 59 56 56 57 58 57 57 59 57 58 58 57 56 56 56 57 57 56 56 58 58 58 59 59 59 60 62 61 60 60 57 58 58
13 12 12 9 13 12 12 15 17 18 17 22 17 17 32 41 42 44 45 45 44 45 47 47 47 48 49 50 51 52 52 53 53 55 55 57 59 59 59 58 58 58 59 60 60 60 60 62 62 63 62 62 62 63 61 62 63 63 63 65 64 63 61 57 58 56 58 57 57 57 59 58 58 57 57 55 55 56 56 56 55 54 54 54 55 56 57 58 57 60 61 60 60 58 56 55 58